EW7349 Weather Reports


Display with metric or nautical units.
time (UTC)temp
F
wind
direction
speed
MPH
gust
MPH
rain 1hr
in
rain 24hr
in
rain mn
in
humidity
%
barometer
mb
20260503002020 56 88 1.0 3.0 0.00 0.00 0.00 46 1012.2
20260503001513 57 45 1.0 5.0 0.00 0.00 0.00 45 1012.2
20260503001008 57 71 1.0 5.0 0.00 0.00 0.00 44 1012.1
20260503000502 57 16 1.0 4.0 0.00 0.00 0.00 44 1012.1
20260503000220 57 74 1.0 4.0 0.00 0.00 0.00 44 1012.1
20260502235450 57 120 1.0 5.0 0.00 0.00 0.00 44 1011.9
20260502234943 57 72 1.0 5.0 0.00 0.00 0.00 44 1011.8
20260502234437 58 96 1.0 2.0 0.00 0.00 0.00 43 1011.8
20260502233931 58 97 1.0 2.0 0.00 0.00 0.00 42 1011.7
20260502233426 58 117 1.0 3.0 0.00 0.00 0.00 42 1011.6
20260502232920 58 95 1.0 3.0 0.00 0.00 0.00 42 1011.6
20260502232413 58 250 1.0 3.0 0.00 0.00 0.00 41 1011.5
20260502231909 58 223 2.0 6.0 0.00 0.00 0.00 41 1011.5
20260502231409 58 82 2.0 6.0 0.00 0.00 0.00 41 1011.4
20260502230909 58 113 1.0 4.0 0.00 0.00 0.00 42 1011.5
20260502230409 58 271 1.0 6.0 0.00 0.00 0.00 43 1011.4
20260502225907 58 30 1.0 6.0 0.00 0.00 0.00 42 1011.3
20260502225638 58 81 1.0 4.0 0.00 0.00 0.00 42 1011.4
20260502224907 58 111 1.0 6.0 0.00 0.00 0.00 41 1011.4
20260502224406 58 315 1.0 6.0 0.00 0.00 0.00 44 1011.4
20260502223904 58 63 1.0 5.0 0.00 0.00 0.00 42 1011.4
20260502223631 58 108 1.0 5.0 0.00 0.00 0.00 41 1011.3
20260502223134 58 331 1.0 5.0 0.00 0.00 0.00 44 1011.4
20260502222844 58 126 2.0 8.0 0.00 0.00 0.00 42 1011.4
20260502221902 58 94 2.0 8.0 0.00 0.00 0.00 40 1011.4
20260502221402 59 107 1.0 6.0 0.00 0.00 0.00 40 1011.4
20260502221348 59 301 0.0 3.0 0.00 0.00 0.00 42 1011.4
20260502220628 59 122 1.0 3.0 0.00 0.00 0.00 41 1011.4
20260502215900 59 306 1.0 4.0 0.00 0.00 0.00 40 1011.5
20260502215357 59 59 2.0 4.0 0.00 0.00 0.00 41 1011.4
20260502214900 60 16 2.0 8.0 0.00 0.00 0.00 38 1011.4
20260502214352 60 306 3.0 8.0 0.00 0.00 0.00 38 1011.5
20260502214106 60 355 1.0 7.0 0.00 0.00 0.00 38 1011.4
20260502213342 60 239 1.0 4.0 0.00 0.00 0.00 40 1011.3
20260502213053 60 123 2.0 8.0 0.00 0.00 0.00 39 1011.3
20260502212328 60 77 3.0 8.0 0.00 0.00 0.00 38 1011.3
20260502211822 60 92 3.0 8.0 0.00 0.00 0.00 40 1011.2
20260502211316 60 150 2.0 7.0 0.00 0.00 0.00 39 1011.1
20260502211036 60 116 2.0 7.0 0.00 0.00 0.00 40 1011.2
20260502210304 60 278 2.0 6.0 0.00 0.00 0.00 38 1011.2
20260502205758 60 308 2.0 8.0 0.00 0.00 0.00 39 1011.3
20260502205252 61 309 2.0 9.0 0.00 0.00 0.00 37 1011.3
20260502205207 61 315 2.0 4.0 0.00 0.00 0.00 41 1011.3
20260502204832 62 90 2.0 9.0 0.00 0.00 0.00 38 1011.4
20260502203734 61 55 2.0 9.0 0.00 0.00 0.00 41 1011.3
20260502203234 61 75 3.0 10.0 0.00 0.00 0.00 38 1011.4
20260502202734 62 304 3.0 10.0 0.00 0.00 0.00 35 1011.4
20260502202233 62 96 2.0 7.0 0.00 0.00 0.00 38 1011.4
20260502201734 62 34 2.0 4.0 0.00 0.00 0.00 37 1011.3
20260502201232 60 30 1.0 5.0 0.00 0.00 0.00 39 1011.3
20260502200734 60 111 2.0 11.0 0.00 0.00 0.00 43 1011.4
20260502200234 59 103 2.0 11.0 0.00 0.00 0.00 38 1011.4
20260502195730 60 63 2.0 8.0 0.00 0.00 0.00 39 1011.5
20260502195231 61 28 2.0 8.0 0.00 0.00 0.00 40 1011.4
20260502194731 60 269 2.0 11.0 0.00 0.00 0.00 38 1011.6
20260502194231 60 110 2.0 11.0 0.00 0.00 0.00 40 1011.6
20260502194211 61 355 3.0 8.0 0.00 0.00 0.00 39 1011.7
20260502193229 60 53 3.0 8.0 0.00 0.00 0.00 39 1011.8
20260502192731 60 346 3.0 10.0 0.00 0.00 0.00 37 1011.8
20260502192227 62 355 3.0 12.0 0.00 0.00 0.00 39 1011.9
20260502191951 61 117 3.0 12.0 0.00 0.00 0.00 39 1011.9
20260502191447 62 19 2.0 8.0 0.00 0.00 0.00 39 1012.0
20260502190716 60 301 2.0 4.0 0.00 0.00 0.00 40 1012.0
20260502190211 59 33 3.0 14.0 0.00 0.00 0.00 41 1012.2
20260502185711 61 106 3.0 14.0 0.00 0.00 0.00 39 1012.3
20260502185432 62 174 2.0 7.0 0.00 0.00 0.00 39 1012.4
20260502184711 63 28 2.0 9.0 0.00 0.00 0.00 38 1012.5
20260502184213 60 94 2.0 9.0 0.00 0.00 0.00 43 1012.6
20260502183714 59 101 1.0 4.0 0.00 0.00 0.00 41 1012.7
20260502183431 58 318 1.0 4.0 0.00 0.00 0.00 43 1012.7
20260502182712 58 209 1.0 5.0 0.00 0.00 0.00 48 1012.9
20260502182212 59 200 2.0 5.0 0.00 0.00 0.00 45 1013.0
20260502181712 58 93 1.0 4.0 0.00 0.00 0.00 45 1013.0
20260502181212 58 253 1.0 4.0 0.00 0.00 0.00 46 1013.1
20260502180707 57 53 1.0 3.0 0.00 0.00 0.00 44 1013.2
20260502180207 57 94 1.0 4.0 0.00 0.00 0.00 44 1013.2
20260502170204 57 80 3.0 9.0 0.00 0.00 0.00 47 1014.0
20260502164201 56 126 2.0 6.0 0.00 0.00 0.00 51 1014.1
20260502163702 56 86 3.0 8.0 0.00 0.00 0.00 52 1014.2
20260502163159 56 355 2.0 8.0 0.00 0.00 0.00 50 1014.2
20260502162700 56 29 1.0 4.0 0.00 0.00 0.00 50 1014.2
20260502162159 55 55 1.0 4.0 0.00 0.00 0.00 55 1014.5
20260502161658 55 315 2.0 7.0 0.00 0.00 0.00 53 1014.4
20260502161417 55 96 3.0 8.0 0.00 0.00 0.00 52 1014.4
20260502160657 54 50 2.0 8.0 0.00 0.00 0.00 52 1014.5
20260502160156 54 100 2.0 7.0 0.00 0.00 0.00 54 1014.3
20260502152154 55 71 2.0 5.0 0.00 0.00 0.00 52 1014.4
20260502151654 54 44 2.0 6.0 0.00 0.00 0.00 53 1014.5
20260502151152 55 90 2.0 6.0 0.00 0.00 0.00 54 1014.4
20260502150653 54 298 2.0 5.0 0.00 0.00 0.00 54 1014.4
20260502150154 53 74 3.0 8.0 0.00 0.00 0.00 56 1014.6
20260502130439 49 21 2.0 7.0 0.00 0.00 0.00 65 1014.3
20260502123403 48 40 3.0 11.0 0.00 0.00 0.00 67 1014.1
20260502122856 49 289 3.0 9.0 0.00 0.00 0.00 67 1014.1
20260502122612 49 355 2.0 8.0 0.00 0.00 0.00 68 1014.2
20260502121844 49 11 2.0 5.0 0.00 0.00 0.00 69 1014.1
20260502121339 48 16 2.0 5.0 0.00 0.00 0.00 69 1014.1
20260502120832 48 95 2.0 5.0 0.00 0.00 0.00 69 1014.0
20260502120326 48 277 2.0 7.0 0.00 0.00 0.00 68 1014.1
20260502115820 48 18 2.0 8.0 0.00 0.00 0.00 68 1014.2
20260502115318 48 64 2.0 8.0 0.00 0.00 0.00 69 1014.2
20260502114808 48 328 2.0 6.0 0.00 0.00 0.00 69 1014.0
20260502114303 48 42 2.0 4.0 0.00 0.00 0.00 70 1014.1
20260502113756 48 80 1.0 6.0 0.00 0.00 0.00 70 1014.2
20260502113514 48 40 2.0 6.0 0.00 0.00 0.00 69 1014.3
20260502112744 48 126 2.0 7.0 0.00 0.00 0.00 69 1014.3
20260502112239 47 49 4.0 11.0 0.00 0.00 0.00 69 1014.2
20260502111732 48 310 3.0 11.0 0.00 0.00 0.00 69 1014.1
20260502111225 48 0 2.0 9.0 0.00 0.00 0.00 70 1014.1
20260502110719 48 236 2.0 5.0 0.00 0.00 0.00 70 1014.1
20260502110216 48 103 2.0 5.0 0.00 0.00 0.00 70 1014.1
20260502105717 48 55 3.0 7.0 0.00 0.00 0.00 70 1014.1
20260502105216 48 130 3.0 7.0 0.00 0.00 0.00 70 1014.1
20260502104936 48 109 2.0 5.0 0.00 0.00 0.00 70 1014.0
20260502104217 48 35 2.0 9.0 0.00 0.00 0.00 71 1014.0
20260502103940 48 238 2.0 9.0 0.00 0.00 0.00 71 1013.8
20260502103217 48 0 2.0 7.0 0.00 0.00 0.00 71 1013.8
20260502102941 48 65 3.0 13.0 0.00 0.00 0.00 71 1013.7
20260502102215 48 39 3.0 13.0 0.00 0.00 0.00 71 1013.6
20260502101939 49 67 3.0 7.0 0.00 0.00 0.00 72 1013.6
20260502101214 49 124 3.0 9.0 0.00 0.00 0.00 72 1013.6
20260502100716 49 5 2.0 9.0 0.00 0.00 0.00 72 1013.5
20260502100214 49 38 2.0 9.0 0.00 0.00 0.00 72 1013.5
20260502091154 49 66 1.0 4.0 0.00 0.00 0.00 77 1012.6
20260502090651 49 64 1.0 6.0 0.00 0.00 0.00 78 1012.5
20260502090151 49 86 2.0 6.0 0.00 0.00 0.00 78 1012.5
20260502071145 50 84 0.0 0.0 0.00 0.00 0.00 85 1012.3
20260502070904 50 84 0.0 0.0 0.00 0.00 0.00 84 1012.4
20260502070143 50 84 0.0 0.0 0.00 0.00 0.00 84 1012.3
20260502065645 51 84 0.0 0.0 0.00 0.00 0.00 84 1012.3
20260502065141 51 84 0.0 0.0 0.00 0.00 0.00 84 1012.3
20260502064638 51 84 0.0 0.0 0.00 0.00 0.00 84 1012.3
20260502064135 51 84 0.0 0.0 0.00 0.00 0.00 84 1012.3
20260502063633 51 84 0.0 0.0 0.00 0.00 0.00 83 1012.4
20260502063133 51 84 0.0 0.0 0.00 0.00 0.00 83 1012.4
20260502062635 51 84 0.0 0.0 0.00 0.00 0.00 83 1012.3
20260502062132 51 84 0.0 1.0 0.00 0.00 0.00 83 1012.2
20260502061630 51 84 0.0 3.0 0.00 0.00 0.00 84 1012.3
20260502061130 52 76 0.0 3.0 0.00 0.00 0.00 83 1012.3
20260502060630 52 355 0.0 1.0 0.00 0.00 0.00 83 1012.2
20260502060614 52 327 0.0 1.0 0.00 0.00 0.00 83 1012.3
20260502055628 52 44 0.0 1.0 0.00 0.00 0.00 84 1012.3
20260502055127 52 42 1.0 3.0 0.00 0.00 0.00 84 1012.3
20260502054625 53 45 1.0 3.0 0.00 0.00 0.00 84 1012.3
20260502054125 53 55 0.0 2.0 0.00 0.00 0.00 84 1012.3
20260502053624 53 55 0.0 2.0 0.00 0.00 0.00 84 1012.2
20260502053123 53 39 0.0 2.0 0.00 0.00 0.00 84 1012.2
20260502052623 53 50 0.0 2.0 0.00 0.00 0.00 84 1012.4
20260502052123 53 50 0.0 1.0 0.00 0.00 0.00 84 1012.5
20260502051620 54 50 0.0 2.0 0.00 0.00 0.00 84 1012.6
20260502051117 54 50 0.0 2.0 0.00 0.00 0.00 84 1012.7
20260502050617 54 94 0.0 0.0 0.00 0.00 0.00 84 1012.6
20260502050114 54 94 0.0 0.0 0.00 0.00 0.00 83 1012.5
20260502045612 54 94 0.0 1.0 0.00 0.00 0.00 83 1012.5
20260502045110 55 94 0.0 2.0 0.00 0.00 0.00 82 1012.4
20260502044608 55 94 0.0 2.0 0.00 0.00 0.00 82 1012.5
20260502044107 55 101 0.0 2.0 0.00 0.00 0.00 82 1012.6
20260502043832 55 94 0.0 2.0 0.00 0.00 0.00 82 1012.6
20260502043103 55 100 0.0 1.0 0.00 0.00 0.00 81 1012.6
20260502042601 55 94 0.0 2.0 0.00 0.00 0.00 81 1012.6
20260502042058 56 94 0.0 2.0 0.00 0.00 0.00 79 1012.7
20260502041559 56 30 0.0 1.0 0.00 0.00 0.00 78 1012.7
20260502041329 56 30 0.0 1.0 0.00 0.00 0.00 77 1012.6
20260502040825 56 30 0.0 1.0 0.00 0.00 0.00 76 1012.5
20260502040057 56 30 0.0 2.0 0.00 0.00 0.00 76 1012.6
20260502035816 57 30 0.0 2.0 0.00 0.00 0.00 74 1012.6
20260502035054 57 319 0.0 2.0 0.00 0.00 0.00 72 1012.5
20260502034552 57 27 0.0 2.0 0.00 0.00 0.00 71 1012.3
20260502034053 57 42 0.0 2.0 0.00 0.00 0.00 69 1012.2
20260502033553 57 44 0.0 2.0 0.00 0.00 0.00 67 1012.0
20260502033047 57 254 0.0 1.0 0.00 0.00 0.00 65 1011.9
20260502032541 57 254 0.0 1.0 0.00 0.00 0.00 66 1011.8
20260502032034 57 254 0.0 2.0 0.00 0.00 0.00 64 1011.7
20260502031529 57 286 0.0 3.0 0.00 0.00 0.00 64 1011.7
20260502031024 57 22 0.0 3.0 0.00 0.00 0.00 63 1011.6
20260502030517 57 248 0.0 3.0 0.00 0.00 0.00 64 1011.5
20260502030012 57 254 1.0 3.0 0.00 0.00 0.00 63 1011.6
20260502025506 57 40 1.0 3.0 0.00 0.00 0.00 63 1011.5
20260502025000 57 242 1.0 3.0 0.00 0.00 0.00 61 1011.4
20260502024454 57 58 0.0 2.0 0.00 0.00 0.00 61 1011.3
20260502023947 57 58 1.0 2.0 0.00 0.00 0.00 61 1011.3
20260502023442 57 82 0.0 2.0 0.00 0.00 0.00 60 1011.1
20260502022935 57 82 1.0 2.0 0.00 0.00 0.00 59 1011.0
20260502022429 57 82 1.0 2.0 0.00 0.00 0.00 59 1010.9
20260502021923 57 82 0.0 2.0 0.00 0.00 0.00 58 1010.8
20260502021637 57 82 0.0 2.0 0.00 0.00 0.00 58 1010.8
20260502021130 57 82 0.0 2.0 0.00 0.00 0.00 58 1010.7
20260502020405 58 82 0.0 2.0 0.00 0.00 0.00 57 1010.7
20260502015900 58 82 0.0 1.0 0.00 0.00 0.00 58 1010.8
20260502015617 58 113 0.0 0.0 0.00 0.00 0.00 58 1010.7
20260502014847 58 113 0.0 0.0 0.00 0.00 0.00 57 1010.6
20260502014341 59 113 0.0 0.0 0.00 0.00 0.00 56 1010.6
20260502013835 59 113 0.0 0.0 0.00 0.00 0.00 55 1010.6
20260502013329 59 113 0.0 0.0 0.00 0.00 0.00 56 1010.5
20260502012823 59 113 0.0 1.0 0.00 0.00 0.00 55 1010.5
20260502012317 59 113 0.0 1.0 0.00 0.00 0.00 53 1010.5
20260502011811 60 113 0.0 1.0 0.00 0.00 0.00 51 1010.3
20260502011305 60 146 0.0 1.0 0.00 0.00 0.00 52 1010.2
20260502011249 60 146 0.0 1.0 0.00 0.00 0.00 53 1010.1
20260502010511 60 150 0.0 0.0 0.00 0.00 0.00 53 1010.0
20260502005747 61 150 0.0 0.0 0.00 0.00 0.00 54 1010.0
20260502005243 61 150 0.0 0.0 0.00 0.00 0.00 53 1010.0
20260502004959 61 150 0.0 0.0 0.00 0.00 0.00 52 1009.9
20260502004230 61 150 0.0 0.0 0.00 0.00 0.00 51 1009.8
20260502003723 62 150 0.0 0.0 0.00 0.00 0.00 51 1009.8
20260502003222 62 150 0.0 0.0 0.00 0.00 0.00 49 1009.7
20260502002945 62 150 0.0 1.0 0.00 0.00 0.00 49 1009.7